Date String (YYYY-MM-DD hh:mm:ss) UTC,Instrument flags,Ambient pressure (hPa),Sample flow (lpm),Bypass flow (lpm),Sample temperature (°C),Ambient temperature (°C),ASC tube jacket temperature (°C),LED temperature (°C),Box temperature (°C),Sample RH (%),Span deviation,Mass concentration (μg/m³),Mass concentration (μg/m³),Mass concentration (μg/m³)
DateTimeUTC,F1_M11,P_M11,Q1_M11,Q2_M11,T1_M11,T2_M11,T3_M11,T4_M11,T5_M11,U1_M11,ZSPAN_M11,X0_M11,X2_M11,X1_M11
2021-11-19 16:00:00,,0825.4,5.00,0.00,22.8,22.1,00.0,31.8,24.6,09.4,0000.0,0009.02,0003.68,0003.15
2021-11-19 16:01:00,,0825.2,5.00,0.00,22.8,22.1,00.0,31.8,24.5,09.3,0000.0,0009.50,0003.66,0003.10
2021-11-19 16:02:00,,0825.2,5.00,0.00,22.8,22.1,00.0,31.8,24.6,09.2,0000.0,0010.24,0003.63,0003.02
2021-11-19 16:03:00,,0825.2,5.00,0.00,22.8,22.1,00.0,31.8,24.6,09.2,0000.0,0010.79,0003.66,0003.02
2021-11-19 16:04:00,,0825.2,5.00,0.00,22.8,22.1,00.0,31.8,24.6,09.3,0000.0,0011.03,0003.73,0003.06
2021-11-19 16:05:00,,0825.3,4.99,0.00,22.8,22.1,00.0,31.8,24.6,09.5,0000.0,0011.13,0003.77,0003.03
2021-11-19 16:06:00,,0825.2,5.01,0.00,22.7,22.1,00.0,31.8,24.5,09.6,0000.0,0011.10,0003.86,0003.08
2021-11-19 16:07:00,,0825.3,5.00,0.00,22.7,22.0,00.0,31.8,24.5,09.5,0000.0,0011.81,0003.97,0003.15
2021-11-19 16:08:00,,0825.3,5.01,0.00,22.7,22.0,00.0,31.8,24.5,09.6,0000.0,0012.43,0004.17,0003.26
2021-11-19 16:09:00,,0825.1,4.99,0.00,22.7,22.0,00.0,31.8,24.4,09.7,0000.0,0012.57,0004.33,0003.36
2021-11-19 16:10:00,,0825.0,5.00,0.00,22.7,22.0,00.0,31.8,24.4,09.6,0000.0,0012.52,0004.41,0003.43
2021-11-19 16:11:00,,0824.9,5.00,0.00,22.7,22.0,00.0,31.8,24.4,09.4,0000.0,0012.27,0004.42,0003.45
2021-11-19 16:12:00,,0825.2,4.99,0.00,22.7,22.0,00.0,31.7,24.4,09.5,0000.0,0011.99,0004.41,0003.47
2021-11-19 16:13:00,,0825.2,5.00,0.00,22.7,22.0,00.0,31.7,24.4,09.6,0000.0,0011.25,0004.49,0003.54
2021-11-19 16:14:00,,0825.2,5.00,0.00,22.7,22.0,00.0,31.7,24.5,09.6,0000.0,0011.19,0004.57,0003.63
2021-11-19 16:15:00,,0825.3,5.00,0.00,22.7,22.0,00.0,31.7,24.5,09.7,0000.0,0011.24,0004.63,0003.68
2021-11-19 16:16:00,,0825.3,5.00,0.00,22.7,22.0,00.0,31.7,24.5,09.7,0000.0,0011.23,0004.62,0003.73
2021-11-19 16:17:00,,0825.2,4.99,0.00,22.7,22.0,00.0,31.7,24.5,09.8,0000.0,0011.43,0004.65,0003.78
2021-11-19 16:18:00,,0825.1,5.00,0.00,22.7,22.0,00.0,31.7,24.5,09.7,0000.0,0010.93,0004.66,0003.80
2021-11-19 16:19:00,,0825.3,5.01,0.00,22.7,22.0,00.0,31.7,24.4,09.7,0000.0,0010.27,0004.62,0003.78
2021-11-19 16:20:00,,0825.3,5.00,0.00,22.7,22.0,00.0,31.7,24.4,09.7,0000.0,0010.49,0004.60,0003.75
2021-11-19 16:21:00,,0825.3,4.99,0.00,22.6,22.0,00.0,31.7,24.4,09.6,0000.0,0010.60,0004.63,0003.72
2021-11-19 16:22:00,,0825.4,5.01,0.00,22.7,22.0,00.0,31.7,24.4,09.6,0000.0,0010.54,0004.61,0003.71
2021-11-19 16:23:00,,0825.4,5.00,0.00,22.7,22.1,00.0,31.7,24.5,09.6,0000.0,0010.45,0004.60,0003.71
2021-11-19 16:24:00,,0825.4,5.01,0.00,22.7,22.1,00.0,31.7,24.5,09.6,0000.0,0010.52,0004.60,0003.69
2021-11-19 16:25:00,,0825.4,4.99,0.00,22.7,22.1,00.0,31.7,24.5,09.5,0000.0,0010.88,0004.61,0003.68
2021-11-19 16:26:00,,0825.3,5.00,0.00,22.7,22.1,00.0,31.7,24.5,09.4,0000.0,0012.99,0004.67,0003.71
2021-11-19 16:27:00,,0825.2,5.00,0.00,22.7,22.1,00.0,31.7,24.5,09.5,0000.0,0013.95,0004.79,0003.70
2021-11-19 16:28:00,,0825.4,5.00,0.00,22.7,22.1,00.0,31.7,24.5,09.5,0000.0,0015.15,0004.85,0003.70
2021-11-19 16:29:00,,0825.3,4.99,0.00,22.7,22.1,00.0,31.7,24.5,09.5,0000.0,0016.41,0004.86,0003.70
2021-11-19 16:30:00,,0825.3,5.01,0.00,22.7,22.1,00.0,31.7,24.6,09.5,0000.0,0016.54,0004.82,0003.69
2021-11-19 16:31:00,,0825.3,4.99,0.00,22.7,22.1,00.0,31.7,24.5,09.4,0000.0,0016.52,0004.82,0003.70
2021-11-19 16:32:00,,0825.4,5.00,0.00,22.7,22.1,00.0,31.7,24.5,09.5,0000.0,0017.17,0004.82,0003.73
2021-11-19 16:33:00,,0825.4,5.00,0.00,22.7,22.1,00.0,31.7,24.5,09.5,0000.0,0018.82,0004.92,0003.79
2021-11-19 16:34:00,,0825.5,5.00,0.00,22.7,22.1,00.0,31.7,24.5,09.4,0000.0,0019.24,0005.02,0003.83
2021-11-19 16:35:00,,0825.5,4.99,0.00,22.7,22.1,00.0,31.7,24.5,09.3,0000.0,0019.23,0005.10,0003.85
2021-11-19 16:36:00,,0825.4,4.99,0.00,22.7,22.1,00.0,31.7,24.5,09.5,0000.0,0018.50,0005.11,0003.85
2021-11-19 16:37:00,,0825.3,5.00,0.00,22.7,22.1,00.0,31.7,24.5,09.5,0000.0,0016.70,0005.09,0003.85
2021-11-19 16:38:00,,0825.2,5.00,0.00,22.7,22.1,00.0,31.7,24.5,09.5,0000.0,0015.62,0005.02,0003.87
2021-11-19 16:39:00,,0825.3,5.00,0.00,22.7,22.1,00.0,31.7,24.5,09.5,0000.0,0014.25,0005.00,0003.89
2021-11-19 16:40:00,,0825.4,5.00,0.00,22.8,22.2,00.0,31.7,24.6,09.5,0000.0,0013.11,0005.02,0003.92
2021-11-19 16:41:00,,0825.3,5.01,0.00,22.8,22.2,00.0,31.7,24.6,09.5,0000.0,0012.96,0005.02,0003.94
2021-11-19 16:42:00,,0825.4,4.99,0.00,22.8,22.3,00.0,31.8,24.6,09.5,0000.0,0012.87,0004.99,0003.95
2021-11-19 16:43:00,,0825.4,5.01,0.00,22.8,22.3,00.0,31.8,24.7,09.5,0000.0,0012.45,0004.96,0003.94
2021-11-19 16:44:00,,0825.5,4.99,0.00,22.9,22.4,00.0,31.8,24.7,09.7,0000.0,0011.45,0004.92,0003.93
2021-11-19 16:45:00,,0825.4,4.99,0.00,22.9,22.5,00.0,31.8,24.8,09.5,0000.0,0010.88,0004.87,0003.92
2021-11-19 16:46:00,,0825.5,5.01,0.00,23.0,22.5,00.0,31.8,24.9,09.5,0000.0,0012.16,0004.82,0003.90
2021-11-19 16:47:00,,0825.7,4.98,0.00,23.0,22.6,00.0,31.8,24.9,09.5,0000.0,0012.81,0004.84,0003.87
2021-11-19 16:48:00,,0825.5,5.01,0.00,23.1,22.6,00.0,31.9,24.9,09.4,0000.0,0012.83,0004.79,0003.85
2021-11-19 16:49:00,,0825.3,5.00,0.00,23.1,22.7,00.0,31.9,25.0,09.4,0000.0,0012.75,0004.74,0003.81
2021-11-19 16:50:00,,0825.2,5.01,0.00,23.1,22.7,00.0,31.9,25.1,09.4,0000.0,0012.72,0004.73,0003.78
2021-11-19 16:51:00,,0825.1,4.99,0.00,23.2,22.7,00.0,32.0,25.1,09.4,0000.0,0013.59,0004.67,0003.75
2021-11-19 16:52:00,,0825.2,4.99,0.00,23.2,22.7,00.0,32.0,25.1,09.5,0000.0,0013.72,0004.72,0003.73
2021-11-19 16:53:00,,0825.3,5.01,0.00,23.2,22.8,00.0,32.0,25.1,09.4,0000.0,0014.19,0004.77,0003.74
2021-11-19 16:54:00,,0825.3,5.00,0.00,23.3,22.8,00.0,32.0,25.1,09.4,0000.0,0014.02,0004.83,0003.77
2021-11-19 16:55:00,,0825.3,4.99,0.00,23.3,22.8,00.0,32.1,25.2,09.4,0000.0,0013.64,0004.88,0003.80
2021-11-19 16:56:00,,0825.2,5.00,0.00,23.3,22.9,00.0,32.1,25.2,09.3,0000.0,0013.94,0004.90,0003.82
2021-11-19 16:57:00,,0825.2,5.00,0.00,23.4,22.9,00.0,32.1,25.2,09.2,0000.0,0012.94,0004.92,0003.83
2021-11-19 16:58:00,,0825.2,4.99,0.00,23.4,22.9,00.0,32.2,25.3,09.2,0000.0,0012.99,0004.86,0003.83
2021-11-19 16:59:00,,0825.2,5.00,0.00,23.4,23.0,00.0,32.2,25.3,09.3,0000.0,0013.35,0004.88,0003.83
